Vertical_Velocity
1 1 2 1 0 1 2 3 -1 1 4 6 3 5 4 1 -2 2 2 4 11 7 3 9 -1 2 3 6 6 2 3 -2 11 2 -8 -3 1 -2 4 -5 5 5 1
1 1 -0 2 3 1 1 -0 -0 -0 -3 -6 -1 2 1 3 5 6 -1 0 -4 3 14 15 7 -3 7 5 1 1 1 6 2 3 24 -19 -6 -4 -6 -5 -0 -3 4
-1 -0 1 -0 -2 -1 -0 -1 -3 -4 -1 0 1 1 -4 -2 -3 -1 1 3 6 4 2 2 15 4 4 0 10 1 3 -0 2 3 11 1 -8 12 -7 -4 2 -1 2
2 1 -2 -3 -4 -2 -2 -10 -6 -6 -6 -5 -3 -6 -5 -5 -2 -2 -7 -5 -5 4 0 4 4 8 3 8 9 7 2 12 -11 12 -12 4 4 -14 4 -12 1 -3 6
-2 -1 -0 -5 -7 2 -4 -2 -2 -6 -9 -8 -13 -12 -14 -12 -5 -7 0 -1 -2 -11 -8 2 -1 0 3 1 8 8 11 -21 1 -1 11 12 3 7 4 6 -1 3 3
-2 -0 -6 -4 0 -3 -3 -0 -3 -4 -7 -10 -11 -8 -10 -8 -10 -9 -7 -4 -2 1 -0 -6 -5 5 1 -2 -0 -2 7 -9 60 -5 29 23 -3 9 -10 -9 15 20 -2
1 -2 1 5 -2 -5 -4 -3 -1 -5 -5 -4 1 -6 -7 -9 -7 -7 -7 -8 -5 -2 1 -3 -2 -1 -1 -9 3 -8 -2 -12 44 10 25 1 60 18 -1 11 -16 20 3
-3 -4 -7 -7 -5 -2 -1 -4 -6 -5 -5 -4 -4 -2 -2 -4 -3 -3 1 2 -2 -4 -4 2 -2 -6 1 2 7 -16 25 2 9 -1 -5 13 -23 2 7 -17 -14 6 18
-0 -2 -3 -2 -2 -4 -5 -4 -4 -1 -3 -4 -4 -2 1 -4 -7 -4 -4 -5 -4 -1 -2 -3 -2 3 -2 1 7 1 7 3 -2 -7 3 -16 6 6 12 -2 -2 11 14
2 1 -2 -4 -3 -2 -2 -1 1 -1 -2 -2 -1 1 -2 -4 -4 -4 -3 -4 -3 -2 -2 -1 -3 -6 -3 4 3 3 7 4 3 1 9 -4 -1 15 5 9 17 4 4
-0 -3 -6 -4 -6 -7 -7 -7 -5 -4 -2 1 2 3 4 1 1 -1 -4 -8 -1 -8 0 -5 -3 -3 -6 -3 4 0 5 3 4 -3 5 10 5 7 5 10 17 6 8
3 0 -0 -2 -3 -7 -7 -1 -0 2 2 1 3 3 3 4 4 3 2 -1 1 -4 -2 -4 -8 -4 -1 -4 -0 -3 3 7 12 13 7 9 7 3 5 12 17 18 3
-5 -5 -1 -2 -5 -3 -3 -4 2 4 5 5 2 8 4 8 6 0 -2 3 -1 3 -4 1 -10 -9 0 -15 -1 -8 -3 1 2 12 3 4 11 9 3 10 22 12 7
-6 -5 -4 -2 -2 1 -1 -3 -1 -2 -1 1 4 8 8 6 3 7 2 1 1 -4 -2 5 1 -3 -2 -2 -4 -1 2 2 2 3 3 5 5 7 3 9 12 6 6
-4 -2 -4 -3 -2 4 0 5 4 3 3 -6 -7 1 1 3 2 2 -1 0 4 4 -2 -3 3 -1 -2 2 -1 -3 9 11 -3 -5 7 5 24 14 15 16 4 11 9
-10 -7 -5 -3 -2 -3 -0 3 2 -1 6 3 2 2 0 -4 2 1 -3 1 2 2 -2 0 -3 -2 -1 0 3 5 10 10 -3 -2 7 4 8 25 14 18 14 17 7
-7 -7 -9 -8 -3 -2 3 -3 -16 -3 1 2 -1 1 0 -5 3 3 -2 -7 -9 -6 -2 3 2 -3 -1 4 6 2 7 11 7 1 3 -4 -10 4 1 11 3 3 5
-7 -9 -3 -8 -8 -4 -9 -3 0 1 -6 -7 -2 2 3 -4 -5 -4 2 -4 -6 -10 -9 -2 -2 -2 0 5 2 4 -4 8 2 7 5 2 -2 2 7 5 1 4 6
-8 -8 -0 -1 -5 2 -1 -3 0 -3 -3 -2 -5 -1 6 -10 -5 -6 -6 -0 -7 -4 -3 -0 1 1 -1 1 2 2 -5 12 4 6 5 7 -2 -0 3 3 12 11 6
1 -10 -1 -2 -3 2 -3 -4 -1 -2 -3 4 -3 1 3 -1 -0 1 1 -1 -1 -3 -7 -1 1 -4 -1 -1 0 3 8 -11 12 3 2 1 -0 6 11 10 4 7 6
5 0 0 -6 -1 -3 -4 -3 -5 -0 1 0 -3 -1 -1 -2 1 -1 -2 -3 -0 -2 -1 -5 0 2 -6 -2 -1 3 -5 -3 13 15 3 -3 7 0 4 2 2 4 -1
-3 4 -4 -1 2 -1 -6 -0 -1 4 1 -1 -1 1 -1 -2 -2 -4 1 1 -1 -3 1 -1 1 2 -0 -3 -3 4 10 -1 1 13 9 10 -0 -0 1 1 0 3 1
-4 -4 -7 -5 8 2 3 -5 2 1 2 1 0 -0 1 5 7 -2 -3 -7 -1 -1 -0 -4 -2 2 -0 -0 -2 3 7 4 0 8 13 7 3 1 -2 2 1 3 2
-7 -4 -1 -1 -6 -1 -1 0 2 3 -2 -0 3 3 -1 1 1 -0 -0 -0 1 -2 -3 -3 -1 -1 -2 -2 -2 3 22 1 8 8 8 5 3 0 2 1 2 -3 3
-5 -1 -1 -1 -1 -1 -0 1 -1 0 -2 1 4 2 2 1 -0 1 7 5 0 -3 -3 -0 -3 -2 -1 5 0 0 5 14 2 -3 4 -3 -2 5 1 -3 1 -0 -2
0 2 1 -2 -0 -0 0 1 0 2 0 1 2 0 3 3 1 -0 2 1 1 -0 -1 -1 -0 1 -1 -1 1 3 3 25 -4 7 8 -0 2 5 1 -1 1 0 -1
Height
3114 3114 3115 3114 3114 3114 3114 3114 3114 3114 3113 3113 3113 3112 3113 3113 3112 3111 3111 3111 3112 3113 3111 3112 3110 3110 3110 3113 3116 3116 3117 3117 3118 3119 3120 3119 3120 3122 3123 3124 3125 3125 3125
3109 3110 3110 3110 3109 3109 3109 3108 3107 3107 3106 3105 3103 3103 3102 3102 3102 3102 3101 3100 3101 3102 3102 3102 3100 3099 3100 3098 3100 3103 3106 3106 3105 3105 3107 3107 3107 3107 3110 3113 3115 3118 3118
3106 3105 3105 3105 3105 3103 3103 3102 3101 3100 3099 3097 3096 3094 3093 3091 3090 3090 3090 3091 3089 3089 3087 3087 3089 3088 3087 3085 3089 3089 3092 3094 3094 3095 3099 3092 3088 3095 3095 3100 3105 3108 3108
3099 3099 3098 3097 3096 3094 3094 3094 3094 3093 3092 3091 3089 3087 3085 3083 3082 3080 3078 3077 3077 3076 3075 3074 3074 3075 3074 3073 3074 3076 3077 3081 3072 3082 3082 3085 3086 3080 3081 3086 3092 3097 3098
3096 3094 3093 3091 3088 3088 3086 3085 3084 3082 3082 3081 3080 3079 3077 3075 3072 3070 3068 3067 3065 3064 3062 3061 3062 3060 3059 3060 3061 3062 3062 3061 3056 3059 3057 3066 3068 3068 3070 3072 3079 3085 3090
3089 3088 3085 3083 3080 3080 3079 3078 3076 3073 3072 3070 3069 3067 3066 3065 3063 3061 3058 3055 3053 3051 3050 3048 3047 3046 3043 3044 3045 3045 3046 3045 3043 3025 3039 3049 3046 3052 3051 3059 3065 3072 3080
3083 3083 3081 3078 3075 3074 3073 3072 3070 3068 3065 3063 3060 3057 3055 3052 3050 3048 3046 3044 3042 3039 3037 3035 3033 3033 3032 3029 3029 3027 3029 3031 3028 3027 3026 3025 3030 3031 3036 3042 3051 3065 3063
3077 3075 3074 3072 3070 3067 3064 3062 3061 3059 3057 3054 3051 3048 3045 3042 3039 3038 3035 3032 3028 3026 3024 3022 3019 3018 3016 3016 3015 3013 3010 3013 3015 3012 3012 3013 3011 3013 3017 3027 3033 3049 3047
3070 3068 3066 3064 3062 3059 3057 3053 3051 3050 3048 3045 3043 3040 3037 3034 3031 3028 3025 3022 3019 3015 3012 3009 3007 3004 3001 3000 3000 2998 2994 2996 2998 2997 2997 3000 3002 3005 3008 3012 3021 3028 3032
3063 3060 3057 3054 3052 3049 3048 3045 3042 3040 3039 3037 3034 3031 3029 3026 3023 3021 3018 3014 3010 3006 3002 2998 2993 2991 2988 2985 2983 2982 2980 2978 2981 2983 2983 2985 2987 2989 2990 2998 3003 3008 3014
3053 3050 3048 3045 3041 3038 3035 3034 3032 3029 3027 3025 3024 3022 3020 3018 3014 3012 3008 3006 3002 2998 2995 2990 2985 2980 2976 2974 2971 2969 2968 2966 2966 2966 2967 2969 2972 2972 2978 2983 2988 2988 2995
3044 3039 3036 3034 3030 3027 3025 3023 3020 3018 3016 3014 3013 3011 3010 3007 3005 3003 3000 2997 2994 2991 2986 2982 2978 2973 2969 2965 2961 2958 2954 2953 2952 2951 2951 2952 2953 2957 2962 2968 2972 2977 2981
3035 3032 3029 3026 3023 3020 3017 3015 3013 3010 3007 3005 3004 3003 3001 2999 2996 2994 2992 2989 2985 2983 2979 2974 2972 2967 2961 2957 2952 2947 2943 2940 2937 2938 2938 2939 2941 2944 2946 2953 2960 2965 2970
3028 3026 3023 3019 3018 3014 3010 3008 3005 3002 2999 2997 2995 2993 2990 2988 2987 2985 2983 2980 2977 2974 2971 2967 2964 2961 2957 2951 2945 2940 2934 2931 2928 2926 2928 2929 2931 2933 2936 2943 2949 2957 2965
3022 3020 3016 3012 3011 3007 3003 3001 2997 2993 2991 2989 2986 2985 2982 2980 2978 2976 2974 2972 2969 2966 2963 2960 2957 2954 2950 2946 2941 2936 2929 2925 2922 2920 2921 2924 2926 2927 2931 2937 2945 2953 2959
3014 3012 3009 3005 3001 2998 2995 2991 2988 2985 2982 2978 2976 2974 2973 2971 2970 2968 2966 2964 2961 2959 2956 2954 2951 2947 2945 2941 2937 2933 2928 2924 2920 2919 2918 2921 2921 2922 2928 2933 2940 2945 2950
3005 3001 2998 2995 2991 2988 2985 2981 2977 2975 2972 2969 2967 2965 2962 2960 2960 2958 2957 2955 2954 2952 2950 2947 2944 2941 2938 2936 2932 2929 2924 2922 2920 2919 2918 2918 2919 2920 2924 2926 2932 2936 2942
2997 2992 2987 2983 2980 2976 2973 2969 2966 2963 2959 2957 2955 2953 2952 2949 2948 2947 2946 2945 2944 2944 2943 2940 2938 2935 2932 2929 2926 2924 2921 2919 2919 2919 2918 2919 2920 2921 2922 2924 2928 2933 2937
2986 2981 2976 2972 2967 2963 2960 2956 2952 2950 2946 2943 2941 2940 2939 2937 2936 2935 2934 2934 2933 2933 2933 2932 2930 2928 2927 2924 2920 2918 2917 2915 2915 2915 2916 2917 2920 2921 2924 2925 2928 2929 2932
2975 2968 2963 2959 2955 2950 2946 2942 2939 2937 2935 2933 2930 2928 2927 2925 2924 2923 2922 2921 2920 2921 2922 2922 2921 2920 2920 2919 2915 2914 2911 2912 2912 2912 2914 2915 2918 2921 2923 2926 2928 2929 2931
2962 2956 2951 2946 2943 2938 2934 2929 2926 2924 2922 2920 2918 2918 2917 2916 2915 2913 2912 2911 2909 2909 2910 2911 2912 2912 2912 2912 2911 2909 2909 2909 2907 2907 2910 2914 2915 2918 2921 2923 2925 2927 2929
2953 2949 2941 2936 2932 2927 2921 2915 2912 2910 2909 2906 2905 2906 2906 2906 2905 2904 2903 2901 2900 2899 2899 2901 2902 2903 2904 2904 2905 2904 2904 2905 2905 2905 2907 2910 2913 2917 2919 2922 2923 2924 2926
2944 2938 2931 2926 2921 2914 2907 2901 2897 2896 2896 2893 2893 2894 2894 2893 2893 2891 2890 2889 2888 2889 2890 2890 2892 2894 2895 2896 2897 2898 2898 2900 2901 2902 2905 2908 2911 2914 2917 2919 2921 2922 2924
2935 2929 2922 2916 2909 2903 2896 2890 2886 2884 2884 2884 2884 2885 2883 2882 2880 2878 2875 2874 2876 2878 2880 2880 2881 2883 2885 2887 2888 2890 2890 2892 2894 2897 2899 2903 2907 2910 2914 2916 2917 2919 2921
2927 2921 2914 2908 2900 2893 2887 2883 2879 2877 2877 2877 2879 2878 2876 2875 2874 2871 2867 2864 2866 2868 2869 2871 2871 2873 2875 2878 2880 2881 2885 2887 2891 2893 2895 2898 2901 2905 2908 2910 2913 2915 2917
2920 2913 2908 2901 2893 2886 2881 2876 2873 2872 2872 2874 2874 2873 2872 2870 2867 2864 2862 2860 2859 2859 2859 2860 2861 2863 2865 2868 2871 2874 2877 2878 2884 2887 2889 2893 2897 2900 2903 2906 2909 2911 2914